Location: Volkssternwarte_EN
(51.3230°N, 7.4010°E)
Time: 07:54:39
(UTC+01:00)

ISS - Visible Passes

Search period start: 20 March 2019 00:00
Search period end: 30 March 2019 00:00
Orbit: 406 x 411 km, 51.6° (Epoch: 20 March)

Date Brightness Start Highest point End Pass type
(mag) Time Alt. Az. Time Alt. Az. Time Alt. Az.
21 Mar -1.4 20:28:25 10° S 20:28:54 12° S 20:28:54 12° S visible
22 Mar -1.7 19:38:33 10° SSE 19:40:02 13° SE 19:40:47 12° SE visible
22 Mar -1.3 21:12:50 10° SW 21:13:34 15° SW 21:13:34 15° SW visible
23 Mar -3.1 20:22:04 10° SW 20:25:05 34° SSE 20:25:14 34° SE visible
24 Mar -2.4 19:31:30 10° SSW 19:34:11 23° SE 19:36:42 11° E visible
24 Mar -2.9 21:07:08 10° WSW 21:09:28 42° WSW 21:09:28 42° WSW visible
25 Mar -3.7 20:16:09 10° WSW 20:19:24 57° SSE 20:20:47 30° E visible
25 Mar -1.1 21:52:37 10° W 21:53:31 17° W 21:53:31 17° W visible
26 Mar -3.2 19:25:17 10° SW 19:28:25 40° SSE 19:31:32 10° E visible
26 Mar -3.8 21:01:32 10° W 21:04:43 81° WNW 21:04:43 81° WNW visible
27 Mar -3.9 20:10:27 10° WSW 20:13:45 82° S 20:15:48 21° E visible
27 Mar -1.6 21:47:03 10° W 21:48:32 24° W 21:48:32 24° W visible
28 Mar -3.9 20:55:56 10° W 20:59:15 83° N 20:59:33 71° ENE visible
29 Mar -3.8 20:04:48 10° W 20:08:07 84° N 20:10:30 17° E visible
29 Mar -2.0 21:41:24 10° W 21:43:14 30° W 21:43:14 30° W visible
